TimeEST,TemperatureF,Dew PointF,Humidity,Sea Level PressureIn,VisibilityMPH,Wind Direction,Wind SpeedMPH,Gust SpeedMPH,PrecipitationIn,Events,Conditions,WindDirDegrees,DateUTC
12:53 AM,62.1,57.0,84,30.19,9.0,North,4.6,-,N/A,,Overcast,10,2013-01-20 05:53:00
1:53 AM,61.0,57.9,90,30.17,5.0,North,6.9,-,0.00,Rain,Light Rain,360,2013-01-20 06:53:00
2:53 AM,61.0,57.9,90,30.15,6.0,NNE,9.2,-,0.01,,Overcast,20,2013-01-20 07:53:00
3:53 AM,61.0,57.9,90,30.15,8.0,Calm,Calm,-,0.00,,Overcast,0,2013-01-20 08:53:00
4:07 AM,60.8,57.2,88,30.13,7.0,NW,3.5,-,N/A,,Overcast,320,2013-01-20 09:07:00
4:50 AM,60.8,57.2,88,30.13,7.0,North,6.9,-,N/A,,Partly Cloudy,360,2013-01-20 09:50:00
4:53 AM,61.0,57.9,90,30.15,7.0,North,8.1,-,N/A,,Partly Cloudy,350,2013-01-20 09:53:00
5:14 AM,60.8,59.0,94,30.14,8.0,North,5.8,-,N/A,,Mostly Cloudy,350,2013-01-20 10:14:00
5:53 AM,60.1,57.9,93,30.15,7.0,NNW,4.6,-,N/A,,Overcast,340,2013-01-20 10:53:00
6:30 AM,60.8,57.2,88,30.14,8.0,North,4.6,-,N/A,,Overcast,360,2013-01-20 11:30:00
6:53 AM,60.1,57.9,93,30.17,9.0,North,8.1,-,N/A,,Overcast,350,2013-01-20 11:53:00
7:53 AM,61.0,57.9,90,30.19,6.0,North,9.2,-,N/A,,Overcast,10,2013-01-20 12:53:00
8:53 AM,62.1,59.0,90,30.19,9.0,North,6.9,-,N/A,,Overcast,360,2013-01-20 13:53:00
9:53 AM,62.1,57.9,86,30.21,9.0,North,8.1,-,N/A,,Overcast,360,2013-01-20 14:53:00
10:53 AM,63.0,59.0,87,30.21,10.0,NNE,10.4,-,N/A,,Overcast,20,2013-01-20 15:53:00
11:53 AM,66.0,60.1,81,30.18,10.0,NNE,9.2,-,N/A,,Overcast,20,2013-01-20 16:53:00
12:53 PM,71.1,61.0,70,30.14,10.0,North,5.8,-,N/A,,Overcast,10,2013-01-20 17:53:00
1:08 PM,71.6,60.8,69,30.12,10.0,NNE,9.2,-,N/A,,Mostly Cloudy,20,2013-01-20 18:08:00
1:53 PM,71.1,57.9,63,30.11,10.0,NE,8.1,-,N/A,,Mostly Cloudy,40,2013-01-20 18:53:00
2:00 PM,71.6,59.0,64,30.09,10.0,NNE,8.1,-,N/A,,Scattered Clouds,30,2013-01-20 19:00:00
2:10 PM,71.6,59.0,64,30.09,10.0,NNE,9.2,-,N/A,,Mostly Cloudy,30,2013-01-20 19:10:00
2:14 PM,71.6,59.0,64,30.09,10.0,NNE,8.1,-,N/A,,Scattered Clouds,30,2013-01-20 19:14:00
2:33 PM,73.4,59.0,61,30.08,10.0,NE,9.2,-,N/A,,Mostly Cloudy,50,2013-01-20 19:33:00
2:42 PM,73.4,59.0,61,30.08,10.0,NE,8.1,-,N/A,,Mostly Cloudy,50,2013-01-20 19:42:00
2:53 PM,72.0,57.9,61,30.09,10.0,NE,9.2,-,N/A,,Overcast,40,2013-01-20 19:53:00
4:53 PM,69.1,55.9,63,30.11,10.0,NE,8.1,-,N/A,,Scattered Clouds,50,2013-01-20 21:53:00
5:53 PM,66.9,55.0,66,30.11,10.0,ENE,8.1,-,N/A,,Scattered Clouds,60,2013-01-20 22:53:00
6:53 PM,64.9,53.1,65,30.12,10.0,NE,6.9,-,N/A,,Clear,50,2013-01-20 23:53:00
7:53 PM,63.0,52.0,67,30.12,10.0,NE,4.6,-,N/A,,Clear,40,2013-01-21 00:53:00
8:53 PM,63.0,51.1,65,30.13,10.0,NE,5.8,-,N/A,,Clear,40,2013-01-21 01:53:00
9:53 PM,62.1,52.0,70,30.14,10.0,Calm,Calm,-,N/A,,Mostly Cloudy,0,2013-01-21 02:53:00
10:53 PM,62.1,52.0,70,30.13,10.0,ENE,3.5,-,N/A,,Overcast,60,2013-01-21 03:53:00
11:53 PM,62.1,53.1,72,30.12,10.0,ENE,3.5,-,N/A,,Overcast,60,2013-01-21 04:53:00